Date,TemperatureHighF,TemperatureAvgF,TemperatureLowF,DewpointHighF,DewpointAvgF,DewpointLowF,HumidityHigh,HumidityAvg,HumidityLow,PressureMaxIn,PressureMinIn,WindSpeedMaxMPH,WindSpeedAvgMPH,GustSpeedMaxMPH,PrecipitationSumIn
2013-3-1,69.3,57.9,46.2,53.0,41.6,31.9,82,56,32,30.31,30.16,12,5,18,0.00
2013-3-2,65.0,55.6,47.7,48.9,37.7,24.6,91,56,23,30.43,30.26,20,9,28,0.00
2013-3-3,67.7,59.1,45.3,57.6,49.2,40.7,87,71,52,30.30,30.03,21,8,28,0.00
2013-3-4,71.0,66.2,62.5,65.2,61.6,57.3,98,86,70,30.03,29.78,28,15,38,0.00
2013-3-5,68.5,63.5,55.8,65.1,47.0,27.8,99,61,23,30.32,29.82,24,12,38,0.00
2013-3-6,64.8,55.6,43.0,53.0,39.5,28.4,85,56,35,30.44,30.25,15,8,21,0.00
2013-3-7,73.0,64.9,57.5,63.5,59.3,53.1,98,83,62,30.25,30.13,20,8,27,0.00
2013-3-8,74.0,68.1,65.1,67.3,65.6,63.3,99,92,75,30.14,30.03,16,9,23,0.00
2013-3-9,72.3,68.6,67.0,68.4,67.3,66.2,100,96,85,30.03,29.68,24,13,34,0.00
2013-3-10,75.3,67.8,58.2,69.3,54.3,35.2,100,68,26,30.08,29.61,24,12,40,0.04
2013-3-11,70.9,61.1,52.2,46.4,34.7,20.1,64,41,15,30.18,30.02,20,8,30,0.00
2013-3-12,73.7,63.5,52.3,55.7,48.8,43.2,88,60,36,30.25,30.08,12,5,16,0.00
2013-3-13,73.0,64.4,55.0,60.7,54.9,47.5,99,73,42,30.43,30.24,15,8,21,0.00
2013-3-14,74.2,66.6,61.0,62.1,58.6,55.6,96,77,54,30.41,30.28,12,6,18,0.00
2013-3-15,72.5,67.5,64.2,65.2,62.2,60.0,96,84,68,30.29,30.07,18,10,28,0.00
2013-3-16,73.7,68.7,66.0,67.0,65.2,63.3,96,89,72,30.07,29.83,22,14,36,0.00
2013-3-17,75.2,70.4,67.0,70.3,68.3,66.5,100,94,81,29.87,29.68,19,12,29,0.00
2013-3-18,76.9,71.2,68.1,70.0,68.2,66.0,100,91,72,29.89,29.73,16,7,24,0.00
2013-3-19,79.8,70.9,64.2,73.0,67.7,60.4,100,91,62,29.99,29.84,22,9,24,0.00
2013-3-20,77.4,69.4,63.9,69.0,59.5,50.9,100,73,48,30.15,29.90,27,14,41,0.00
2013-3-21,71.8,68.1,64.3,68.8,63.4,57.2,98,85,73,30.06,29.69,23,10,26,0.00
2013-3-22,76.0,71.2,68.7,73.1,70.5,68.6,100,98,87,29.75,29.64,18,9,29,0.00
2013-3-23,79.3,71.8,67.5,74.2,69.3,66.0,100,93,66,29.72,29.59,13,6,18,0.00
2013-3-24,68.9,62.9,55.4,68.3,43.6,22.3,100,58,19,30.14,29.66,26,11,39,0.03
2013-3-25,65.2,55.6,46.8,38.9,34.2,25.3,65,46,24,30.36,30.14,22,9,28,0.00
2013-3-26,66.9,59.1,51.8,42.8,37.9,31.8,61,46,29,30.48,30.34,20,12,29,0.00
2013-3-27,68.2,62.3,58.1,59.4,50.4,41.7,85,66,54,30.36,30.21,15,8,21,0.00
2013-3-28,71.7,66.6,63.3,64.3,62.2,59.3,96,86,70,30.23,30.15,13,7,20,0.00
2013-3-29,75.8,69.0,64.0,67.1,64.6,62.2,99,87,64,30.19,30.08,13,8,23,0.00
2013-3-30,76.5,70.3,66.5,70.0,67.8,65.7,100,92,76,30.12,29.96,16,9,22,0.00
2013-3-31,76.3,71.0,67.8,71.2,69.4,67.8,100,95,81,29.99,29.81,20,10,29,0.00